CDT,Max TemperatureF,Mean TemperatureF,Min TemperatureF,Max Dew PointF,MeanDew PointF,Min DewpointF,Max Humidity, Mean Humidity, Min Humidity, Max Sea Level PressureIn, Mean Sea Level PressureIn, Min Sea Level PressureIn, Max VisibilityMiles, Mean VisibilityMiles, Min VisibilityMiles, Max Wind SpeedMPH, Mean Wind SpeedMPH, Max Gust SpeedMPH,PrecipitationIn, CloudCover, Events, WindDirDegrees
2013-9-1,100,86,73,73,69,63,94,64,29,29.98,29.92,29.86,10,10,9,8,1,22,0.00,0,Thunderstorm,98
2013-9-2,95,85,75,72,68,64,83,60,36,30.06,29.98,29.92,10,10,10,16,2,23,0.00,1,Thunderstorm,21
2013-9-3,98,84,69,70,66,59,94,59,28,30.08,30.01,29.94,10,10,10,10,1,,0.00,1,,87
2013-9-4,100,88,75,70,67,61,83,56,30,30.10,30.05,29.99,10,10,9,10,1,,0.00,1,,137
2013-9-5,98,86,75,70,67,63,83,57,32,30.17,30.10,30.04,10,10,8,12,1,16,0.00,0,,123
2013-9-6,96,84,71,70,66,61,88,57,32,30.16,30.09,30.00,10,10,10,10,1,18,0.00,0,,126
2013-9-7,98,84,69,70,66,61,88,62,30,30.10,30.04,29.95,10,10,10,20,2,28,0.00,0,,119
2013-9-8,96,82,69,72,67,61,94,69,30,30.05,30.00,29.92,10,10,9,17,2,23,0.00,1,Thunderstorm,147
2013-9-9,93,80,68,70,67,63,94,69,36,30.06,30.01,29.94,10,10,10,16,2,31,0.00,2,,146
2013-9-10,93,82,71,72,69,64,94,74,38,30.13,30.07,30.01,10,10,9,20,3,30,0.00,3,Rain,146
2013-9-11,95,83,71,73,65,55,94,63,26,30.17,30.11,30.04,10,10,5,13,2,20,0.00,1,,141
2013-9-12,95,82,68,70,63,57,88,57,28,30.14,30.07,29.98,10,10,6,12,1,,0.00,0,,118
2013-9-13,98,82,66,66,60,54,83,52,22,30.04,29.97,29.87,10,9,5,12,1,16,0.00,0,,121
2013-9-14,96,81,66,66,61,59,78,51,28,30.01,29.95,29.89,10,10,8,10,2,18,0.00,1,,130
2013-9-15,93,82,71,70,66,61,88,59,38,30.08,30.02,29.98,10,10,10,12,2,23,0.00,1,,128
2013-9-16,93,81,69,73,68,64,94,72,38,30.13,30.08,30.01,10,10,1,14,2,23,0.02,2,Rain,104
2013-9-17,89,81,73,73,71,66,100,75,46,30.14,30.07,29.99,10,10,3,10,0,,0.00,1,,110
2013-9-18,96,82,69,72,67,61,94,66,32,30.08,30.01,29.92,10,10,8,13,2,18,0.00,1,,154
2013-9-19,89,80,71,73,72,70,100,80,52,30.03,29.96,29.88,10,10,3,17,2,25,0.15,3,Rain-Thunderstorm,113
2013-9-20,78,74,69,75,71,66,100,94,83,29.97,29.91,29.87,10,8,1,17,3,23,0.65,6,Rain-Thunderstorm,19
2013-9-21,84,73,62,66,56,45,88,62,26,30.04,29.97,29.91,10,10,10,15,8,20,0.00,3,,12
2013-9-22,84,68,51,54,51,45,94,61,26,29.99,29.92,29.85,10,10,7,9,1,,0.00,0,,91
2013-9-23,89,71,53,55,53,46,94,59,22,29.91,29.86,29.79,10,10,5,8,1,,0.00,0,,129
2013-9-24,93,75,57,64,58,54,94,59,30,30.00,29.94,29.89,10,10,3,6,1,,0.00,0,,3
2013-9-25,95,78,62,64,61,57,94,62,30,29.97,29.90,29.82,10,10,5,10,1,,0.00,0,,200
2013-9-26,91,78,66,70,57,52,74,48,26,29.95,29.89,29.85,10,10,8,12,3,16,0.00,0,,152
2013-9-27,89,80,71,75,71,66,94,77,55,29.96,29.91,29.86,10,10,9,12,7,20,0.00,4,Thunderstorm,147
2013-9-28,89,78,68,73,71,64,89,77,55,30.10,29.97,29.90,10,10,1,17,9,20,0.22,4,Rain-Thunderstorm,177
2013-9-29,78,69,60,64,61,59,100,82,51,30.14,30.07,30.00,10,9,1,7,4,,0.58,5,Rain-Thunderstorm,4
2013-9-30,89,71,53,63,58,48,100,70,25,30.02,29.93,29.85,10,10,10,7,1,,0.00,0,,114